#timestamp,LO_Frequency,Hit,StdDev 
1524333615.3,286046998.7,N
1524333635.1,286046996.5,N
1524333636.0,286046996.5,N
1524333655.8,286046999.0,N
1524333675.7,286046999.0,N
1524333695.5,286046996.5,N
1524333715.4,286046999.3,N
1524333735.2,286046998.6,N
1524333755.0,286046996.5,N
1524333755.9,286046996.5,N
1524333775.8,286046998.6,N
1524333795.6,286047001.2,N
1524333815.4,286046998.5,N
1524333835.3,286047000.7,N
1524333855.1,286047000.6,N
1524333875.9,286047000.8,N
1524333895.7,286047000.5,N
1524333915.5,286047000.0,N
1524333935.4,286047000.0,N
1524333955.2,286047002.8,N
1524333975.0,286047000.2,N
1524333975.9,286047000.2,N
1524333995.8,286046998.4,N
1524334015.6,286046998.2,N
1524334035.5,286047000.7,N
1524334055.3,286047000.7,N
1524334075.1,286047001.2,N
1524334095.9,286047000.8,N
1524334115.7,286047000.0,N
1524334135.5,286047000.6,N
1524334185.4,286046998.5,E
1524334195.3,286046999.7,N
1524334215.2,286047000.0,P
1524334235.0,286047002.7,P
1524334235.9,286047002.7,N
1524334255.8,286047002.6,N
1524334275.6,286047002.0,N
1524334295.4,286047002.1,N
1524334315.3,286046999.9,N
1524334335.1,286047001.0,N
1524334355.8,286047002.5,N
1524334375.7,286047002.8,N
1524334395.5,286046999.7,N
1524334415.4,286047001.8,N
1524334435.2,286047004.3,Y
1524334455.0,286047002.3,P
1524334455.9,286047002.3,P
1524334475.8,286047002.6,P
1524334495.6,286047002.8,Y
1524334515.4,286046998.5,P
1524334535.3,286046998.2,N
1524334555.1,286046998.1,N
1524334575.9,286046998.3,N
1524334595.7,286047000.9,N
1524334615.5,286047000.8,N
1524334635.4,286046998.3,N
1524334655.2,286047001.1,N
1524334675.0,286047000.4,N
1524334676.0,286047000.4,N
1524334695.8,286047001.2,N
1524334715.6,286047001.1,N
1524334735.5,286047000.9,N
1524334755.3,286047001.1,N
1524334775.1,286046998.9,N
1524334795.9,286046999.0,N
1524334815.7,286046999.0,N
1524334835.5,286046998.7,N
1524334855.4,286046996.8,N
1524334875.2,286046996.7,N
1524334895.1,286046996.7,N
1524334896.0,286046996.7,N
1524334915.8,286046999.0,N
1524334935.6,286046999.4,N
1524334955.5,286046998.3,N
1524334975.3,286046999.0,N
1524334995.2,286046998.2,N
1524335015.9,286046999.9,N
1524335035.7,286047001.0,N
1524335055.6,286047001.0,N
1524335075.4,286047000.6,N
1524335095.2,286047000.3,N
1524335115.1,286047000.6,N
1524335116.0,286047000.6,N
1524335135.8,286047000.3,N
1524335155.7,286047000.2,N
1524335175.5,286047000.5,N
1524335195.3,286046998.7,N
1524335215.2,286046998.7,N
1524335235.0,286047000.7,N
1524335235.9,286047000.7,N
1524335255.7,286047000.8,N
1524335275.6,286046999.8,N
1524335295.4,286046998.6,N
1524335315.3,286047001.2,N
1524335335.1,286047001.0,N
1524335336.0,286047001.0,N
1524335355.8,286046999.8,N
1524335375.7,286047000.6,N
1524335395.5,286047000.3,N
1524335415.4,286046999.8,N
1524335435.2,286047002.4,N
1524335455.0,286047001.4,N
1524335455.9,286047001.4,N
1524335475.8,286047002.6,N
1524335495.6,286047003.9,Y
1524335515.4,286047003.6,P
1524335535.3,286047002.6,N
1524335555.1,286047000.7,N
1524335575.9,286046998.1,N
1524335595.7,286046999.3,N
1524335615.5,286046999.3,N
1524335635.4,286046999.3,N
1524335655.2,286046998.8,N
1524335675.0,286046996.5,N
1524335675.9,286046996.5,N
1524335695.8,286046999.1,N
1524335715.6,286046998.9,N
1524335735.5,286046998.7,N
1524335755.3,286047000.1,N
1524335775.1,286047001.2,N
1524335795.9,286046998.5,N
1524335815.7,286046999.3,N
1524335835.5,286046997.7,N
1524335855.4,286046994.9,N
1524335875.2,286046995.1,N
1524335895.1,286046994.9,N
1524335896.0,286046994.9,N
1524335915.8,286046997.0,N
1524335935.6,286046999.6,N
1524335955.5,286046996.7,N
1524335975.3,286046997.3,N
1524335995.1,286046999.1,N
1524336015.9,286046996.9,N
1524336035.7,286046999.1,N
1524336055.6,286046995.0,N
1524336075.4,286046997.6,N
1524336095.2,286046998.0,N
1524336115.1,286046995.4,N
1524336116.0,286046995.4,N
1524336135.8,286046995.6,N
1524336155.7,286046996.3,N
1524336175.5,286046994.5,Y
1524336195.3,286046997.8,P
1524336215.2,286046995.1,P
1524336235.0,286046995.6,P
1524336235.9,286046995.6,Y
1524336255.7,286046998.9,P
1524336275.6,286046999.3,N
1524336295.4,286046999.1,N
1524336315.3,286046998.7,N
1524336335.1,286046996.5,Y
1524336355.8,286046998.7,P
1524336375.7,286047001.0,P
1524336395.5,286047001.1,N
1524336415.4,286046998.3,N
1524336435.2,286047000.7,N
1524336455.0,286046998.9,N
1524336455.9,286046998.9,N
1524336475.8,286046999.5,N
1524336495.6,286046999.0,N
1524336515.4,286046998.9,N
1524336535.3,286046996.9,Y
1524336555.1,286046999.8,P
1524336575.9,286047002.5,P
1524336595.7,286047002.4,N
1524336615.5,286047002.6,N
1524336635.4,286047002.2,N
1524336655.2,286046999.9,N
1524336675.0,286046998.5,N
1524336676.0,286046998.5,N
1524336695.8,286047000.8,N
1524336715.6,286046998.1,N
1524336735.5,286046998.8,N
1524336755.3,286047000.0,N
1524336775.1,286046999.9,N
1524336795.9,286047001.0,N
1524336815.7,286046996.5,N
1524336835.6,286047000.8,N
1524336855.4,286046999.4,N
1524336875.2,286046998.3,N
1524336895.1,286046996.5,N
1524336896.0,286046996.5,N
1524336915.8,286046999.5,N
1524336935.6,286046997.4,N
1524336955.5,286046999.4,N
1524336975.3,286046996.6,N
1524336995.2,286046996.5,N
1524337015.9,286046996.7,N
1524337035.7,286046996.5,N
1524337055.6,286046996.6,N
1524337075.4,286046999.4,N
1524337095.2,286046998.3,N
1524337115.1,286046998.6,N
1524337116.0,286046998.6,N
1524337135.8,286046996.9,N
1524337155.7,286046999.0,N
1524337175.5,286047000.5,N
1524337195.3,286047001.2,N
